STARLINK-11707, 64328

Orbit data source: Space-Track

STARLINK-11707, 64328 is a payload satellite owned by SpaceX/Seattle (US) in LEO that was launched on Tue, 10 Jun 2025 UTC via an FALCON 9 launch vehicle from the Air Force Eastern Test Range (AFETR). Payload-class satellites include a variety of spacecraft equipped with specific instruments for various scientific and technological missions. These include communications satellites like Starlink; space stations such as the ISS; scientific satellites like the Hubble; Earth observation satellites from companies like Planet Labs, Umbra, and HawkEye 360; GPS; miniature CubeSats for education and research; and military/defense satellites.

Loading next visibility...
Identifier
64328, 2025-124M
Orbit
LEO
Country
Flag of USUS
Related business
Manufacturer
SpaceX/Seattle
Mission
Operational Commercial Communications
Bus & Motor
STARLINK V2MD, Unknown motor
Mass
960 kg wet, ~910 kg dry
Launch date (UTC)
2025-06-10 (11 months ago)
Launch vehicle
FALCON 9
Launch site
Air Force Eastern Test Range (AFETR)
Object type
Payload
Rocket body
Debris
Shape & HBR
Box + 2 Pan, 18.1 m
Radar Cross Section
36.964 m², Large (>1 m²)

Expand to show TLE details & history
Last TLE update: 23 hours ago

TLE from 23 hours ago
0 STARLINK-11707
1 64328U 25124M   26119.29153038  .00155936  00000-0  11941-2 0  9994
2 64328  43.0015  84.1202 0001641 262.0867  97.9815 15.70879929 50795
Epoch: 2026-04-29T06:59Z
TLE epoch observation values (Epoch: 2026-04-29T06:59:48.224Z)
Latitude
Longitude
121.91468°
Altitude
356.306 km
Speed
7.697 km/s
True Right ascension
05h 36m 28s
True Declination
0° 00' 00"
Sunlit
Object was in daylight at epoch
Visualization orbit readout
Latitude
Unknown
Longitude
Unknown
Altitude
Unknown
Speed
Unknown
Apparent Right ascension
Unknown
Apparent Declination
Unknown
Sunlit
N/A
Visualization observer readout
Local Sidereal Time
13:39:26
Azimuth
Unknown
Elevation
Unknown
Doppler factor
Unknown
Orbital elements
Apogee altitude
359.468 km
Perigee altitude
357.257 km
Semi-major axis
6,736.499 km
Eccentricity
0.00016
Inclination
43.0015°
RAAN
84.1202°
Arg. of periapsis
262.0867°
True anomaly
98.00012°
Mean anomaly
97.9815°
Eccentric anomaly
97.99081°
Mean motion
3.92547 °/min
Orbital period
91.71 mins
BSTAR
0.0011941
Loading maneuver chart data...
Computing Atmospheric mass density...
Loading historical data...
Loading historical data...
Loading historical data...
Loading historical data...
Loading historical data...
Loading historical data...
Loading historical data...

Documentation

Showing up to 5 results
|